Dewpoint
77 78 77 74 72 69 68 66 51 56 40 38 38 38 39 40 43 46 46 48 48 51 57 57 55 56 54 54 59 62 62 57 57 48 44 62 69 69 71 73 74 75 75 75 76 76 75 76 77 77 76 77 77 76 76 76 76 76 76 76 76 76 76 76 76 76 75 75 75 75 75 75 74 74 74 75 74 74 74 75 75 74 75 75 75 74 74 74 75 74 74 75 75 75 75 76 76
76 76 75 72 68 65 63 65 54 41 40 37 37 37 38 42 45 45 45 47 49 53 59 59 60 62 62 62 62 60 61 64 65 64 66 68 68 70 73 74 74 75 75 75 75 75 75 76 77 76 76 77 77 76 77 77 77 77 77 76 77 77 76 76 76 76 76 75 75 75 75 75 75 75 74 74 74 75 75 74 75 75 75 74 74 74 75 74 74 75 75 74 74 74 74 76 75
74 72 69 68 66 66 66 65 40 41 37 35 36 38 40 43 44 46 48 51 55 57 57 56 56 57 58 59 58 60 57 66 66 66 66 67 67 71 73 74 75 75 75 75 75 75 75 76 77 77 77 77 76 77 76 77 77 77 77 77 77 77 76 76 76 76 75 75 75 75 75 75 75 74 74 75 75 75 75 75 75 75 74 74 74 75 75 75 77 76 76 75 74 74 73 75 75
71 69 66 66 63 65 60 56 46 39 37 37 37 37 42 44 46 48 51 53 55 55 54 53 53 56 58 59 60 62 63 64 66 66 65 66 67 72 73 74 75 75 75 75 75 76 76 76 77 77 76 77 77 77 76 76 76 76 77 77 77 76 76 76 76 76 75 75 75 75 75 75 75 75 74 74 74 74 74 74 74 74 74 74 74 75 75 75 76 76 76 75 75 74 73 74 74
67 68 66 65 65 60 59 55 48 41 36 37 38 38 43 46 48 50 51 53 53 53 52 54 56 59 61 61 61 60 62 66 66 66 66 68 70 72 73 74 75 75 75 76 76 76 76 78 77 77 77 76 77 77 76 76 76 76 76 76 77 77 76 76 76 76 75 75 75 75 75 75 75 74 74 74 74 74 74 74 74 74 74 74 74 74 74 74 74 75 76 76 76 76 72 72 74
65 64 67 67 65 66 58 47 47 49 37 38 38 38 41 46 48 49 50 50 51 53 54 54 56 56 58 60 62 62 65 63 66 67 67 68 70 72 74 75 74 75 75 76 76 76 76 78 77 77 77 77 77 76 77 77 76 76 76 76 76 76 76 76 76 76 75 75 75 75 75 75 74 74 74 74 74 74 73 73 73 73 73 73 74 73 73 74 74 74 73 75 75 76 75 75 73
64 66 68 67 64 64 53 49 46 50 46 37 37 39 42 44 47 48 50 50 52 54 55 55 57 56 56 60 62 64 66 68 67 67 68 69 72 73 74 74 74 74 75 75 75 76 76 77 77 77 76 76 76 77 77 77 76 77 76 76 76 76 76 76 76 76 75 75 75 75 75 75 75 75 75 75 75 74 74 74 73 73 73 73 73 73 74 74 74 74 74 74 74 74 74 75 74
70 63 67 53 52 50 46 45 44 47 36 35 38 40 42 45 48 49 50 51 51 52 54 55 56 55 56 60 59 63 68 69 68 69 70 71 72 73 73 73 74 74 75 75 76 76 77 77 77 77 76 76 76 76 76 76 77 76 76 76 76 75 75 76 75 75 75 75 75 75 76 75 75 75 75 75 75 75 74 74 74 74 73 73 73 74 74 74 74 74 74 74 73 73 73 73 74
64 63 63 52 45 42 42 36 35 42 29 34 37 45 51 46 48 48 47 51 54 54 55 56 57 56 58 62 64 68 70 70 70 71 71 71 71 72 72 73 73 74 75 75 76 77 77 77 77 77 76 77 76 76 76 76 76 75 76 76 75 75 75 75 76 75 75 75 75 75 75 74 74 74 75 75 75 74 74 74 74 74 74 74 73 74 74 74 74 74 74 74 73 73 73 73 72
64 63 52 48 46 37 37 34 34 27 27 35 38 43 44 46 46 47 50 52 54 56 57 58 59 58 63 64 66 69 70 71 71 71 71 71 71 71 72 73 73 74 75 75 76 76 77 77 77 77 77 76 76 76 76 76 76 76 76 75 76 75 75 75 75 75 75 75 75 75 75 75 74 74 74 74 74 74 74 74 74 74 74 73 73 73 74 74 74 74 74 74 74 73 73 73 73
55 55 57 46 41 38 38 34 37 37 26 34 40 43 45 46 46 49 51 53 55 57 60 60 60 61 62 64 66 70 71 70 70 69 70 70 70 71 72 73 74 74 74 75 76 76 77 76 77 77 77 77 77 77 76 76 76 77 77 76 76 76 76 75 75 75 75 75 75 74 74 74 74 74 74 74 74 74 74 74 74 74 73 73 72 73 73 74 74 74 74 74 74 74 75 74 74
53 47 48 41 39 37 36 36 35 33 26 38 37 40 43 46 48 50 52 54 57 59 58 60 59 63 63 65 67 70 70 70 69 69 69 69 70 71 72 73 74 74 75 75 76 76 77 77 76 77 77 77 77 77 77 76 76 76 77 76 76 77 76 76 75 75 75 75 75 74 74 74 74 74 74 74 74 74 74 74 74 73 73 73 73 73 73 73 74 74 74 74 74 74 75 74 75
57 47 41 35 35 40 37 34 23 46 32 35 31 39 44 46 47 51 52 55 57 57 57 58 62 62 61 64 68 70 69 69 69 68 68 68 70 72 73 73 74 75 75 76 76 76 76 77 76 76 76 77 77 76 76 76 76 77 77 76 77 77 77 76 76 76 75 75 75 74 74 74 74 74 74 74 74 74 74 74 73 74 73 73 73 73 73 74 74 74 74 73 73 74 75 75 75
55 48 41 37 44 38 35 25 26 37 36 39 41 43 45 47 48 51 54 54 55 53 58 62 62 64 64 66 68 68 69 70 69 68 68 69 71 73 73 73 74 75 75 75 75 76 76 77 77 76 76 76 76 76 76 76 76 77 77 76 77 77 76 76 76 76 75 75 75 75 74 74 74 74 74 74 74 74 74 73 73 74 73 73 74 74 74 75 76 75 75 74 74 74 74 75 76
45 47 47 44 36 35 31 24 30 38 39 42 46 47 48 50 50 52 53 52 53 59 60 60 63 60 61 64 64 67 69 70 69 69 70 71 73 74 74 73 74 75 75 75 76 76 76 77 76 76 76 77 76 76 76 76 75 76 76 76 76 76 76 76 75 75 75 75 75 75 74 75 74 74 73 74 74 74 74 73 73 73 74 74 74 74 75 75 76 74 75 74 74 74 74 75 75
44 36 37 38 30 30 30 25 25 36 39 47 50 51 52 53 52 52 53 52 55 57 57 58 61 54 63 64 65 68 69 70 70 70 71 73 74 75 74 73 73 74 75 75 76 76 76 76 77 77 77 76 77 76 76 77 76 76 76 76 76 76 76 76 75 75 75 75 75 75 75 74 74 74 74 74 74 74 73 73 73 73 73 74 74 74 75 75 76 75 75 75 74 74 75 74 76
38 40 38 35 28 27 22 18 28 37 34 41 46 49 50 52 55 54 53 55 54 54 54 55 55 60 63 63 66 68 70 71 71 71 73 74 74 74 73 73 73 74 74 75 76 76 76 75 77 77 77 77 77 77 77 76 76 76 75 76 76 76 75 75 75 75 75 74 74 74 75 75 74 74 74 74 74 74 75 74 73 73 73 73 74 74 75 75 76 76 75 74 74 74 75 75 75
38 37 33 28 32 13 16 23 27 36 43 46 49 51 51 51 54 55 57 57 57 56 56 58 61 62 64 65 67 68 70 70 70 72 73 74 74 73 72 73 73 73 74 75 75 75 76 75 76 77 77 77 77 77 77 75 75 76 75 76 75 76 75 74 75 75 75 74 75 75 74 75 74 73 73 76 75 75 74 74 73 73 73 73 73 73 75 75 75 75 75 75 75 74 75 75 74
36 32 30 21 25 17 16 24 34 43 43 46 47 49 50 51 52 52 55 55 55 55 56 59 62 63 65 66 66 68 69 69 70 72 73 73 73 72 72 72 72 73 74 74 75 75 76 76 77 76 77 77 77 77 77 75 74 74 74 75 77 76 76 76 75 76 74 74 74 74 75 75 74 74 74 75 76 77 77 74 73 73 72 73 73 73 73 73 75 75 75 75 75 75 75 74 73
39 31 27 25 32 17 28 34 43 44 45 46 47 48 48 49 51 53 55 55 55 55 56 59 62 62 63 64 65 67 68 70 72 72 72 73 72 72 72 72 72 72 73 74 74 76 75 76 76 76 76 77 76 76 72 74 75 75 75 75 75 75 75 76 74 75 74 74 74 74 75 74 74 73 77 76 75 76 76 75 73 73 73 72 73 74 72 73 73 74 74 75 74 75 73 73 72
21 21 19 16 14 25 30 43 45 46 47 48 48 49 49 50 52 55 55 55 55 56 57 59 62 62 63 64 65 68 69 70 71 72 72 72 73 73 72 72 72 72 73 74 75 75 76 76 76 76 76 77 77 76 74 72 74 76 76 76 75 75 75 75 75 75 74 75 74 75 75 75 75 74 74 74 74 74 74 73 74 74 74 73 77 73 73 73 73 74 74 75 74 74 73 72 73
29 21 13 14 24 34 34 44 48 49 50 49 49 49 49 52 53 54 54 53 54 56 57 61 62 63 63 63 64 68 70 70 71 71 71 72 72 72 72 72 73 73 74 74 75 76 76 75 75 76 76 76 76 76 76 76 75 75 75 75 74 75 75 75 75 75 74 75 74 75 75 75 74 74 73 73 74 73 72 72 73 73 73 73 75 72 72 72 73 73 73 72 73 73 73 73 72
11 11 13 15 21 39 42 47 49 50 50 50 50 51 53 56 58 58 55 52 54 58 59 61 63 63 63 64 64 67 69 70 70 71 71 71 72 72 72 72 73 73 73 73 74 75 75 75 75 76 75 75 75 76 76 77 76 76 76 75 75 75 75 75 75 75 75 74 74 75 75 74 74 74 73 73 73 72 73 72 72 73 73 72 73 72 71 71 72 72 72 71 71 72 71 71 72
10 10 14 21 42 43 45 47 50 49 50 50 52 53 54 56 55 59 60 59 55 59 60 61 62 63 63 63 63 66 68 69 70 71 71 71 72 72 72 72 73 73 73 73 74 74 75 74 75 75 75 75 75 75 76 76 76 75 75 76 76 75 75 75 75 75 75 75 75 75 75 74 74 74 74 73 73 72 73 72 72 72 72 73 72 72 71 70 71 71 71 70 71 71 71 70 71
15 17 18 19 36 39 44 46 49 51 52 53 55 57 59 59 59 61 60 56 59 60 60 61 61 62 62 62 63 64 66 68 69 70 71 71 72 72 72 72 72 73 72 73 73 74 74 74 74 75 75 75 75 75 75 75 75 75 74 74 75 75 75 75 75 75 75 75 75 75 75 74 74 74 73 73 72 72 73 72 72 72 72 72 72 72 71 70 70 70 71 70 70 70 70 70 70
20 13 16 20 39 43 45 48 51 52 53 56 58 58 59 59 61 59 60 56 59 60 60 60 60 60 61 61 63 64 65 67 68 69 70 71 71 71 72 72 72 72 72 72 73 73 74 74 74 74 74 75 75 75 75 75 75 75 74 74 74 75 75 75 75 75 75 75 75 75 75 75 74 74 74 73 72 72 72 72 72 72 72 72 72 72 72 71 70 70 70 70 70 69 69 69 70
18 19 19 35 42 44 47 49 52 53 53 56 56 55 57 59 59 57 61 57 60 60 60 60 59 59 60 61 63 64 64 66 67 69 69 70 71 71 71 71 71 71 72 72 72 73 73 73 73 74 74 75 75 75 75 75 75 75 75 75 75 75 75 75 75 75 75 75 75 75 75 75 74 73 73 73 72 72 72 72 72 72 72 72 72 72 71 71 70 70 70 70 70 69 69 69 70
19 20 21 29 26 33 42 49 53 53 53 57 58 58 59 60 60 58 60 57 59 59 59 59 59 59 60 62 63 64 64 65 66 68 68 69 70 70 70 70 71 71 71 71 72 73 73 73 73 73 73 74 75 75 76 75 74 74 75 76 75 75 75 75 75 75 75 75 75 75 74 74 75 73 73 73 73 72 71 71 72 71 72 72 73 73 72 72 71 70 70 70 70 69 69 69 70
19 20 21 25 31 36 43 51 50 53 54 58 58 57 58 60 59 61 60 58 59 60 60 60 61 60 61 62 63 64 63 65 65 67 68 69 69 69 69 70 70 70 71 71 71 72 72 72 72 73 73 73 74 74 75 75 74 73 74 75 75 75 75 75 75 75 75 75 75 74 74 74 74 73 73 73 73 72 72 71 71 72 72 72 72 73 72 72 70 69 69 69 69 69 69 69 71
23 21 26 25 27 35 38 44 47 54 56 55 54 51 54 59 61 61 61 61 62 62 63 63 63 63 62 63 63 64 64 64 65 65 68 68 68 68 68 69 70 70 70 70 71 71 72 72 72 72 72 72 73 74 75 74 73 73 74 74 75 75 76 75 75 75 75 75 75 74 74 73 73 74 73 73 73 72 72 71 71 71 72 72 72 72 72 72 71 70 69 69 70 69 68 69 70
17 23 22 23 24 29 32 42 51 53 56 44 57 53 54 57 60 61 62 62 62 62 63 63 63 64 63 63 63 63 64 64 65 66 68 68 68 68 68 69 70 71 71 70 70 71 72 72 72 72 72 72 73 74 74 73 73 73 74 74 74 74 75 76 76 75 74 74 75 75 74 73 73 73 74 73 73 72 72 71 71 71 71 71 71 72 72 72 71 70 70 68 68 68 68 69 69
20 16 18 19 23 27 29 39 51 51 47 55 55 53 54 56 59 61 62 62 63 64 65 65 65 65 65 65 64 65 67 68 68 67 67 68 68 68 68 69 70 70 70 70 71 72 73 73 73 72 73 73 74 74 74 73 73 73 74 75 74 74 75 76 76 75 74 73 73 74 75 74 74 73 73 74 73 72 72 71 71 72 71 71 71 71 72 71 71 70 70 69 67 67 68 67 68
27 16 28 18 24 24 31 37 39 45 49 46 54 51 53 54 58 60 62 63 64 64 64 64 64 65 65 65 66 66 67 68 68 68 69 69 71 70 69 68 69 69 70 70 71 71 72 73 73 74 74 74 75 75 74 74 74 73 74 74 75 76 75 76 75 74 73 72 72 73 74 75 74 74 74 74 74 73 72 71 71 71 72 71 70 70 71 71 71 70 69 69 68 67 67 67 67
23 25 22 21 23 28 31 38 41 45 45 46 52 52 52 53 58 60 62 63 64 64 64 64 64 65 65 65 66 67 67 68 68 67 68 69 70 71 70 70 70 70 70 70 71 71 71 72 72 73 74 75 75 74 74 74 74 74 74 74 76 73 73 73 74 74 74 73 73 72 73 74 74 74 74 74 74 74 72 71 71 71 72 71 70 70 70 70 70 70 69 69 68 66 66 66 66
18 23 22 18 26 31 34 36 40 43 46 48 49 51 49 54 57 60 62 64 64 64 64 64 64 65 65 66 66 67 67 68 69 68 68 68 68 70 70 70 69 70 70 70 71 72 73 74 75 74 74 74 74 74 74 74 74 73 73 73 75 71 71 71 72 72 73 73 74 74 73 74 74 73 73 74 74 74 73 72 71 71 72 71 70 69 69 70 70 69 69 68 68 67 66 66 66
17 15 16 22 23 30 33 35 43 44 45 46 48 48 50 53 56 59 62 64 64 64 64 64 64 64 65 65 66 67 68 69 70 69 69 68 68 68 69 70 71 71 71 72 72 73 73 73 73 74 75 75 75 74 74 75 75 75 74 73 74 72 70 70 71 72 73 73 73 73 74 74 74 74 73 73 74 74 73 72 71 72 72 71 70 69 69 69 69 69 68 68 67 68 68 66 66
17 18 21 18 24 26 36 41 42 46 45 45 49 49 51 53 56 60 62 63 63 63 63 63 63 63 64 65 66 67 67 68 70 70 70 70 69 70 71 71 71 72 71 71 72 72 73 74 72 71 72 74 75 75 75 75 75 75 74 74 74 72 67 69 70 71 72 72 72 71 72 73 73 73 74 74 74 74 73 73 72 72 72 71 70 70 69 69 69 69 69 69 67 66 67 67 66
22 20 21 22 28 31 39 40 42 43 42 45 51 52 53 55 58 61 62 62 61 62 62 62 62 63 64 65 66 67 67 68 69 69 70 70 71 71 71 70 71 68 69 69 70 71 71 72 72 71 71 73 74 75 75 74 71 72 72 71 71 71 69 67 69 70 69 71 72 70 70 71 71 72 72 73 74 73 73 73 72 72 72 71 71 70 70 71 70 69 69 68 69 67 66 67 67
20 22 22 23 26 27 33 40 37 43 44 44 50 51 50 54 57 59 60 61 61 62 62 62 62 62 62 63 64 65 66 67 69 69 70 70 71 71 70 70 68 68 68 68 69 69 70 71 73 74 74 74 73 73 71 71 70 70 71 71 70 70 70 69 69 72 73 71 70 70 70 70 71 72 72 73 73 73 73 72 72 72 72 72 71 70 70 70 70 69 69 68 68 68 68 68 68
21 23 23 24 28 30 27 35 37 40 42 45 48 48 50 53 54 56 57 59 60 61 62 62 62 62 62 63 64 65 66 67 68 67 66 66 66 68 70 70 70 70 69 68 70 70 70 71 71 73 74 73 72 71 72 70 71 71 71 70 70 70 69 71 72 74 73 72 70 70 70 70 71 71 71 72 73 73 73 72 72 72 72 72 72 70 70 70 70 69 69 69 68 67 68 68 68
23 20 20 15 23 26 29 28 40 44 45 47 48 47 48 51 52 55 59 60 61 61 62 62 62 63 63 64 64 65 65 66 66 65 63 63 63 63 66 69 70 70 69 68 68 69 71 71 72 73 74 73 73 74 73 73 73 73 72 72 72 72 72 71 70 70 71 72 72 72 72 71 71 69 70 71 71 71 72 72 72 71 71 72 72 71 71 70 70 70 69 69 69 67 67 67 68
11 23 13 18 16 19 33 38 38 40 43 45 44 39 42 47 49 55 58 60 60 61 61 61 62 62 63 63 63 64 64 65 64 63 62 63 63 62 62 64 65 66 67 68 69 69 69 70 71 72 72 72 72 73 73 73 73 73 72 71 70 68 68 68 67 68 69 69 69 72 71 69 69 69 69 69 70 72 71 69 68 69 69 71 72 72 72 72 71 70 70 69 69 69 67 67 67
18 15 26 21 14 16 32 34 39 39 40 43 45 39 38 42 50 55 57 59 59 60 60 61 61 62 62 62 62 63 63 63 63 64 64 63 61 59 59 61 63 62 63 66 67 68 69 71 73 72 71 71 71 71 71 72 71 70 70 70 69 68 68 68 69 69 69 69 69 68 70 68 68 68 68 68 68 69 70 69 69 68 70 70 70 71 71 71 72 72 71 70 70 69 69 67 67
14 17 18 18 18 14 27 33 37 39 40 39 40 42 41 39 46 54 57 58 58 59 59 60 61 61 61 61 62 62 62 62 62 63 63 62 60 59 58 60 62 62 62 64 65 66 67 68 69 69 69 70 70 70 70 71 70 69 69 68 69 69 69 69 70 70 69 69 69 69 69 69 68 68 68 68 68 69 70 70 68 69 69 69 70 70 71 71 71 69 70 71 70 69 68 67 67
14 16 18 19 24 18 17 11 16 21 37 38 37 43 38 39 44 53 56 56 56 57 58 59 60 60 60 61 61 61 61 61 61 61 61 60 59 60 62 61 62 64 64 64 64 65 66 66 67 66 66 67 67 68 70 70 70 70 69 69 69 69 70 70 70 68 68 68 68 68 68 69 68 68 69 69 69 69 71 71 69 70 70 70 71 70 71 71 71 70 71 71 67 67 69 69 69
17 17 24 25 26 27 16 15 20 27 28 34 37 38 34 35 42 51 53 54 55 56 58 58 59 59 59 59 60 60 60 60 60 60 60 60 60 61 62 63 62 63 65 67 65 65 65 65 66 65 65 66 67 67 68 69 69 69 67 67 68 68 69 69 68 68 68 67 67 67 67 67 68 68 68 69 69 70 69 69 71 71 70 70 71 70 70 70 70 70 70 71 71 71 71 70 69
22 24 21 22 28 33 41 36 31 23 18 24 30 36 34 32 43 50 52 54 55 56 57 58 58 58 58 58 59 59 59 60 60 60 60 60 61 61 62 62 62 63 64 64 64 64 64 64 63 63 64 64 65 65 67 68 68 67 67 67 67 67 67 68 68 68 67 66 66 66 66 66 66 67 67 68 69 69 69 69 69 70 69 69 72 70 70 70 70 70 70 70 70 70 70 70 70
20 22 23 24 24 30 34 31 32 17 19 31 29 30 36 29 34 47 53 52 55 56 57 57 56 56 57 57 58 58 59 60 60 60 60 60 60 61 62 61 61 62 63 63 63 63 64 64 64 62 63 64 65 66 67 68 67 66 66 66 67 67 67 68 67 67 67 66 66 65 66 66 66 66 66 67 67 67 67 67 68 68 69 70 70 70 70 70 70 70 70 70 70 70 70 70 69
21 31 29 17 14 23 13 28 15 16 17 29 34 35 34 32 36 45 50 52 55 56 57 57 56 55 56 56 57 58 59 59 59 59 59 59 59 59 59 59 61 61 62 63 63 63 63 63 63 62 61 62 64 65 67 67 67 67 67 67 67 66 66 67 67 66 66 65 66 66 66 66 65 65 65 65 65 65 66 66 66 66 65 67 68 68 68 68 69 69 69 69 69 69 69 68 68
17 19 30 21 19 23 17 25 24 20 25 27 24 38 34 38 43 49 49 50 53 56 56 57 56 55 55 56 57 58 57 57 59 59 58 58 58 58 58 60 61 61 61 62 64 64 63 63 63 61 61 61 63 64 65 66 67 67 66 67 67 67 66 66 66 66 65 65 66 66 65 65 65 65 65 65 65 65 65 65 66 66 67 67 67 67 67 67 68 68 69 69 69 68 68 67 67
20 27 24 22 22 20 15 21 14 16 19 22 28 34 31 38 39 49 51 51 52 55 55 55 54 54 55 56 57 56 56 57 58 57 57 57 58 58 58 60 60 60 61 62 62 62 62 62 61 60 60 61 62 63 64 65 66 67 66 66 67 67 66 66 65 66 65 65 64 64 65 65 65 65 65 66 66 66 66 66 66 67 67 67 67 68 69 68 68 68 68 69 69 67 67 67 66
27 22 24 19 23 32 16 26 22 25 21 21 35 36 41 43 48 52 52 52 53 54 53 54 54 55 55 56 55 56 56 57 57 57 57 57 58 58 59 60 60 60 61 61 61 62 62 62 61 61 60 61 62 63 62 63 65 66 66 65 66 66 67 66 66 65 65 65 65 64 65 65 65 65 65 66 67 68 67 67 67 67 67 67 67 67 67 67 66 66 66 67 67 68 67 66 66
27 21 23 23 29 30 29 37 35 32 26 23 37 43 46 48 48 49 51 51 52 52 53 53 53 54 55 55 55 56 56 56 56 56 56 57 58 58 59 60 60 61 60 60 61 62 61 62 61 60 60 60 61 62 61 63 64 64 65 64 65 65 65 65 65 65 65 65 65 65 65 65 66 66 67 67 67 67 68 67 67 67 67 67 66 66 67 67 66 66 67 67 67 68 68 67 67
21 22 22 30 34 32 25 15 25 24 16 23 40 42 42 40 39 49 49 50 50 51 52 52 53 54 54 54 54 55 56 56 56 56 57 57 57 59 59 60 60 61 61 60 62 62 61 61 61 60 61 59 60 60 61 62 64 64 64 64 63 64 65 65 65 65 65 65 65 65 65 65 65 66 67 67 67 67 67 68 68 67 67 67 67 67 67 67 67 66 66 67 67 67 67 68 68
20 19 27 21 21 18 28 24 16 15 14 20 24 41 43 42 42 46 47 48 49 50 51 51 52 53 54 54 54 54 55 55 56 56 55 56 56 58 58 59 60 60 63 61 61 61 60 60 61 60 59 59 60 61 61 62 63 63 63 64 63 64 64 64 65 65 64 64 64 64 64 64 65 65 66 66 66 66 66 66 67 67 67 66 66 66 66 66 67 66 66 66 67 67 67 67 67
26 21 19 29 25 28 21 25 28 22 16 19 13 39 38 45 44 47 47 48 49 49 49 50 52 53 54 53 53 53 53 54 55 54 54 55 55 58 58 59 59 59 61 61 61 61 60 60 62 60 61 59 59 59 60 61 61 62 62 62 62 62 63 63 64 64 63 63 64 64 64 64 64 65 65 65 65 65 66 66 66 66 66 66 66 65 65 65 66 66 66 66 66 67 67 66 66
24 24 26 27 30 30 24 31 22 20 22 18 23 29 36 40 46 47 48 48 49 49 49 50 52 53 53 53 52 52 53 53 54 54 54 54 55 57 58 58 59 60 62 62 61 60 60 60 59 61 58 58 58 59 60 62 63 61 62 61 61 62 62 62 63 63 63 63 63 64 63 64 65 64 65 65 65 65 65 66 66 66 66 66 66 66 66 66 66 66 66 66 66 66 66 66 67
23 22 22 23 26 23 19 22 27 31 21 19 23 21 31 35 49 49 48 49 49 49 49 50 52 53 53 53 52 52 53 53 54 54 54 54 55 56 58 59 60 60 61 62 61 61 60 60 59 59 59 58 58 59 61 62 62 62 60 61 61 61 62 61 62 62 62 62 62 63 63 64 64 65 65 65 64 65 66 66 66 66 65 65 65 66 66 66 66 66 66 66 66 66 66 66 67